Вернуться в каталог

CZ-3A R/B

АктивенGTO
NORAD 33464·ROCKET BODY·🇨🇳 China

Запущен Dec 23, 2008 с Xichang Satellite Launch Center

Loading…

TLE

УстаревающийSource: Space-Track

Эпоха: Sep 14, 2026, 07:35 UTC

1 33464U 08066B   26257.31651975  .00000127  00000-0  10042-2 0  9998
2 33464  24.5933 190.0156 7149767   8.0890 358.9423  2.34415035150306

Отслеживайте CZ-3A R/B в реальном времени с AllMySat

Download on the App Store